BEIDOU-3S IGSO-2S

Last updated on Tue Sep 22 2026 00:03:13 GMT+0000 (Coordinated Universal Time)

1 40938U 15053A 26263.75592795 -.00000098 00000+0 00000+0 0 9992 2 40938 49.0814 257.6362 0065450 192.6863 277.4729 1.00283197 40315
UTC large
Height (km)
Speed (km/s)
/
Latitude / Longitude
Inclination (degrees)
Orbital Period (minutes)
Azimuth
Elevation
Range (km)
Doppler Factor

Next 0 passes for location: London (51.5072 / 0.1276)

No passes found over London.
BEIDOU-3S IGSO-2S